Decimomannu, Italy

1:40 AM CEST on September 25, 2016 (GMT +0200)
Decimomannu Mil

Weather History for LIED - November, 2012

Change the Weather History Date:

Wednesday, November 7, 2012

  Actual Average Record
Temperature  
Mean Temperature 58 °F -  
Max Temperature 65 °F 66 °F 77 °F (2013)
Min Temperature 50 °F 50 °F 41 °F (2002)
Degree Days  
Heating Degree Days 8    
Growing Degree Days 8 (Base 50)    
Moisture  
Dew Point 50 °F    
Average Humidity 74    
Maximum Humidity 88    
Minimum Humidity 43    
Precipitation  
Precipitation 0.00 in - - ()
Sea Level Pressure  
Sea Level Pressure 30.25 in    
Wind  
Wind Speed 5 mph ()    
Max Wind Speed 14 mph    
Max Gust Speed -    
Visibility 7.1 miles    
Events      
Averages and records for this station are not official NWS values.
T = Trace of Precipitation, MM = Missing Value Source: Averaged Metar Reports

Daily Weather History Graph

Daily Weather History Graph

Search for Another Location

Airport or City:

Trip Planner

Search our weather history database for the weather conditions in past years. The results will help you decide how hot, cold, wet, or windy it might be!

Date:

Astronomy

Nov. 07, 2012 Rise Set
Actual Time 6:59 AM CET 5:16 PM CET
Civil Twilight 6:30 AM CET 5:44 PM CET
Nautical Twilight 5:58 AM CET 6:16 PM CET
Astronomical Twilight 5:27 AM CET 6:47 PM CET
Moon No Moon Rise 1:14 PM CET (11/7)
Length of Visible Light 11h 13m
Length of Day
10h 17m
Last Quarter, 46% of the Moon is Illuminated
Nov 7
Last Quarter
Nov 13
New
Nov 20
First Quarter
Nov 28
Full
Dec 6
Last Quarter

Hourly Weather History & Observations

Time (CET) Temp. Dew Point Humidity Pressure Visibility Wind Dir Wind Speed Gust Speed Precip Events Conditions
12:55 AM 57.2 °F 51.8 °F 82% 30.15 in 6.2 mi NNW 3.5 mph - N/A   Mostly Cloudy
1:00 AM 57 °F 53 °F 80% 30.18 in 6 mi NNW 3.5 mph - -   Partly Cloudy
1:55 AM 57.2 °F 53.6 °F 88% 30.18 in 6.2 mi NNW 2.3 mph - N/A   Mostly Cloudy
2:55 AM 57.2 °F 53.6 °F 88% 30.18 in 6.2 mi NNW 2.3 mph - N/A   Mostly Cloudy
3:55 AM 57.2 °F 51.8 °F 82% 30.18 in 6.2 mi NNE 3.5 mph - N/A   Mostly Cloudy
4:00 AM 57 °F 52 °F 79% 30.19 in 6 mi NNE 3.5 mph - -   Partly Cloudy
4:55 AM 57.2 °F 51.8 °F 82% 30.18 in 6.2 mi North 3.5 mph - N/A   Scattered Clouds
5:55 AM 55.4 °F 51.8 °F 88% 30.18 in 6.2 mi North 2.3 mph - N/A   Mostly Cloudy
7:00 AM 55 °F 52 °F 86% 30.22 in 7 mi North 3.5 mph - -   Mostly Cloudy
7:55 AM 57.2 °F 51.8 °F 82% 30.24 in 6.2 mi NNW 8.1 mph - N/A   Mostly Cloudy
8:55 AM 59.0 °F 51.8 °F 77% 30.24 in 6.2 mi NW 5.8 mph - N/A   Mostly Cloudy
9:55 AM 60.8 °F 51.8 °F 72% 30.24 in 6.2 mi NNW 6.9 mph - N/A   Mostly Cloudy
10:00 AM 60 °F 51 °F 64% 30.27 in 11 mi NNW 6.9 mph - -   Mostly Cloudy
10:55 AM 62.6 °F 51.8 °F 68% 30.27 in 6.2 mi NNW 11.5 mph - N/A   Scattered Clouds
12:55 PM 64.4 °F 48.2 °F 56% 30.24 in 6.2 mi NNW 13.8 mph - N/A   Partly Cloudy
1:00 PM 65 °F 48 °F 43% 30.26 in 12 mi NNW 13.8 mph - -   Scattered Clouds
1:55 PM 64.4 °F 46.4 °F 52% 30.24 in 6.2 mi NNW 10.4 mph - N/A   Partly Cloudy
2:55 PM 64.4 °F 46.4 °F 52% 30.24 in 6.2 mi NNW 10.4 mph - N/A   Partly Cloudy
3:55 PM 64.4 °F 46.4 °F 52% 30.24 in 6.2 mi NW 8.1 mph - N/A   Partly Cloudy
4:00 PM 64 °F 47 °F 44% 30.27 in 16 mi NW 8.1 mph - -   Scattered Clouds
4:55 PM 62.6 °F 50.0 °F 63% 30.27 in 6.2 mi NW 5.8 mph - N/A   Partly Cloudy
5:55 PM 60.8 °F 51.8 °F 72% 30.27 in - North 5.8 mph - N/A   Clear
6:55 PM 57.2 °F 51.8 °F 82% 30.30 in 6.2 mi North 2.3 mph - N/A   Partly Cloudy
7:00 PM 56 °F 51 °F 78% 30.31 in 9 mi North 2.3 mph - -   Scattered Clouds
7:55 PM 55.4 °F 50.0 °F 82% 30.30 in 6.2 mi North 3.5 mph - N/A   Partly Cloudy
8:55 PM 53.6 °F 50.0 °F 88% 30.30 in 6.2 mi NNW 4.6 mph - N/A   Partly Cloudy
9:55 PM 50.0 °F 46.4 °F 87% 30.33 in 6.2 mi WNW 2.3 mph - N/A   Partly Cloudy
10:00 PM 50 °F 47 °F 86% 30.34 in 9 mi WNW 2.3 mph - -   Scattered Clouds
10:55 PM 50.0 °F 46.4 °F 87% 30.33 in 6.2 mi North 3.5 mph - N/A   Partly Cloudy